This is the latest recevied weather packets stored in our database for station/object WD4ITN. If no packets are shown the sender has not sent any weather packets the latest 10 day(s).
| Time | Temp. | Humidity | Pressure | Rain* | Wind** | Luminosity | Snow |
|---|---|---|---|---|---|---|---|
| 1777821210 | 7.22° C | 53% | 1016 hPa | 0 mm | - | - | - |
| 1777820911 | 7.22° C | 55% | 1016 hPa | 0 mm | - | - | - |
| 1777820607 | 7.22° C | 54% | 1016.1 hPa | 0 mm | - | - | - |
| 1777820305 | 6.67° C | 56% | 1016.2 hPa | 0 mm | - | - | - |
| 1777820001 | 6.67° C | 54% | 1016.1 hPa | 0 mm | - | - | - |
| 1777819708 | 6.67° C | 52% | 1016.1 hPa | 0 mm | - | - | - |
| 1777819411 | 6.67° C | 53% | 1016.1 hPa | 0 mm | - | - | - |
| 1777819111 | 6.11° C | 51% | 1016.1 hPa | 0 mm | - | - | - |
| 1777818799 | 6.11° C | 54% | 1016.1 hPa | 0 mm | - | - | - |
| 1777818502 | 6.67° C | 54% | 1016.1 hPa | 0 mm | - | - | - |
| 1777818194 | 6.11° C | 55% | 1016 hPa | 0 mm | - | - | - |
| 1777817894 | 6.11° C | 57% | 1016 hPa | 0 mm | - | - | - |
| 1777817597 | 5.56° C | 55% | 1015.8 hPa | 0 mm | - | - | - |
| 1777817291 | 5.56° C | 54% | 1015.9 hPa | 0 mm | - | - | - |
| 1777816999 | 5.56° C | 55% | 1015.8 hPa | 0 mm | - | - | - |
| 1777816701 | 5.56° C | 55% | 1015.9 hPa | 0 mm | - | - | - |
| 1777816394 | 5.56° C | 55% | 1015.9 hPa | 0 mm | - | - | - |
| 1777816112 | 5.56° C | 56% | 1015.8 hPa | 0 mm | - | - | - |
| 1777815812 | 5° C | 57% | 1015.9 hPa | 0 mm | - | - | - |
| 1777815505 | 5° C | 57% | 1015.8 hPa | 0 mm | - | - | - |
| 1777815203 | 4.44° C | 56% | 1015.7 hPa | 0 mm | - | - | - |
| 1777814904 | 4.44° C | 56% | 1015.6 hPa | 0 mm | - | - | - |
| 1777814592 | 4.44° C | 58% | 1015.7 hPa | 0 mm | - | - | - |
| 1777814295 | 4.44° C | 57% | 1015.7 hPa | 0 mm | - | - | - |
| 1777814016 | 3.89° C | 60% | 1015.6 hPa | 0 mm | - | - | - |
* Rain since midnight (hover to see other rain measurements)
** Current wind speed in m/s (hover to see current wind gust speed)